Notices

What's New in latest Release from April 7th, 2021:

- Updated Glossary, including Speed of Maximum Gust, and Total Hourly Precipitation

- Updated national and regional climate services offices contacts and prices information

- Addition of station inventory lists for 1981-2010, 1971-2000, and 1961-1990 Normals.

If you haven't already, please take our survey and provide feedback about our website: https://eccc.sondage-survey.ca/f/LanguageSelection.aspx?s=442ca660-fcf1-47c0-95a9-59707d6fd709

Hourly Data Report for September 13, 2017

TORONTO CITY
ONTARIO

43°40'00.000" N
79°24'00.000" W
112.50 m
6158355
71508
XTO

Download Data

Hourly Data (September 2017)
Hourly Data Report for September 13, 2017
TIME
LST
Temp Definition
°C
Dew Point Definition
°C
Rel Hum Definition
%
Precip. Amount Definition
mm

Wind Dir Definition
10's deg

Wind Spd Definition
km/h
Visibility Definition
km
Stn Press Definition
kPa
Hmdx Definition


Wind Chill Definition


Weather Definition


00:00 15.9 11.0 73 0.0 LegendMM LegendMM   99.87     LegendNANA
01:00 15.7 10.5 71 0.0 LegendMM LegendMM   99.86     LegendNANA
02:00 15.7 10.6 72 0.0 LegendMM LegendMM   99.83     LegendNANA
03:00 14.8 10.5 76 0.0 LegendMM LegendMM   99.79     LegendNANA
04:00 14.4 10.9 79 0.0 LegendMM LegendMM   99.79     LegendNANA
05:00 14.8 11.7 82 0.0 LegendMM LegendMM   99.79     LegendNANA
06:00 15.1 11.9 82 0.0 LegendMM LegendMM   99.79     LegendNANA
07:00 16.0 12.5 80 0.0 LegendMM LegendMM   99.82     LegendNANA
08:00 18.1 14.2 78 0.0 LegendMM LegendMM   99.82     LegendNANA
09:00 18.7 14.8 78 0.0 LegendMM LegendMM   99.82     LegendNANA
10:00 19.2 14.7 75 0.0 LegendMM LegendMM   99.78     LegendNANA
11:00 21.3 13.9 63 0.0 LegendMM LegendMM   99.74 25   LegendNANA
12:00 22.1 13.1 57 0.0 LegendMM LegendMM   99.70 25   LegendNANA
13:00 24.1 11.9 46 0.0 LegendMM LegendMM   99.62 26   LegendNANA
14:00 23.6 12.6 50 0.0 LegendMM LegendMM   99.60 26   LegendNANA
15:00 22.8 13.5 56 0.0 LegendMM LegendMM   99.54 26   LegendNANA
16:00 22.4 13.3 56 0.0 LegendMM LegendMM   99.50 25   LegendNANA
17:00 21.6 14.1 62 0.0 LegendMM LegendMM   99.51 25   LegendNANA
18:00 20.9 14.5 67 0.0 LegendMM LegendMM   99.51 25   LegendNANA
19:00 19.7 14.9 74 0.0 LegendMM LegendMM   99.53     LegendNANA
20:00 19.4 14.7 74 0.0 LegendMM LegendMM   99.58     LegendNANA
21:00 18.8 13.8 73 0.0 LegendMM LegendMM   99.58     LegendNANA
22:00 18.9 15.3 79 0.0 LegendMM LegendMM   99.60     LegendNANA
23:00 18.7 13.8 74 0.0 LegendMM LegendMM   99.57     LegendNANA

Notes on Data Quality.

Legend

  • E = Estimated
  • M = Missing
  • NA = Not Available*
  • [empty] = Indicates an unobserved value
Date modified: